AirNav   Duncan Aviation - Near you to keep you flying
 
 1501 users online  

5CL9 Table Mountain Field Airport
Auberry, California, USA

GOING TO AUBERRY?


FAA INFORMATION EFFECTIVE 02 DECEMBER 2021

Location

FAA Identifier: 5CL9
Lat/Long: 37-08-28.8000N 119-30-28.5000W
37-08.480000N 119-30.475000W
37.1413333,-119.5079167
(estimated)
Elevation: 1280 ft. / 390 m (estimated)
Variation: 15E (1990)
From city: 8 miles N of AUBERRY, CA
Time zone: UTC -8 (UTC -7 during Daylight Saving Time)
Zip code: 93602

Airport Operations

Airport use: Private use. Permission required prior to landing
Activation date: 05/1994
Control tower: no
ARTCC: OAKLAND CENTER
FSS: RANCHO MURIETA FLIGHT SERVICE STATION
Attendance: UNATNDD
Wind indicator: yes
Segmented circle: no

Nearby radio navigation aids

VOR radial/distance  VOR name  Freq  Var
FRAr045/4.7FRIANT VORTAC115.6017E

Airport Services

Runway Information

Runway 15/33

Dimensions: 2000 x 50 ft. / 610 x 15 m
Surface: dirt
Operational restrictions: LANDING ONLY ON RY 15.
RUNWAY 15  RUNWAY 33
Traffic pattern: leftleft
Obstructions: none1000 ft. hill, 100 ft. from runway

Airport Ownership and Management from official FAA records

Ownership: Privately-owned
Owner: TABLE MOUNTAIN RANCHERIA
23736 SKY HARBOUR ROAD
FRIANT, CA 93626
Phone 559-822-2587
Manager: ANGELA KARST
23736 SKY HARBOUR ROAD
FRIANT, CA 93626
Phone 559-822-2597

Airport Operational Statistics

Aircraft based on the field: 1
Single engine airplanes: 1
    

Additional Remarks

FOR CD CTC OAKLAND ARTCC AT 510-745-3380.

Instrument Procedures

There are no published instrument procedures at 5CL9.

Some nearby airports with instrument procedures:

KFAT - Fresno Yosemite International Airport (24 nm SW)
O32 - Reedley Municipal Airport (28 nm S)
KFCH - Fresno Chandler Executive Airport (29 nm SW)
KMAE - Madera Municipal Airport (30 nm W)
KMPI - Mariposa-Yosemite Airport (34 nm NW)
 
Loc | Ops | Rwys | IFR | FBO | Links
Com | Nav | Svcs | Stats | Notes
Area around 5CL9 (Table Mountain Field Airport)
 
Road maps at: MapQuest Bing Google
 
Aerial photo
No photo
 
Sectional chart

 
Airport distance calculator
Flying to Table Mountain Field Airport? Find the distance to fly.

From to 5CL9

Sunrise and sunset
Times for 06-Dec-2021
 Local
(UTC-8)
 Zulu
(UTC)
Morning civil twilight06:3014:30
Sunrise06:5914:59
Sunset16:4000:40
Evening civil twilight17:0801:08

Current date and time
Zulu (UTC)  06-Dec-2021 18:36:57
Local (UTC-8)  06-Dec-2021 10:36:57
 
METAR
KFAT 
24nm SW 
061753Z 00000KT 1 1/2SM BR OVC005 08/07 A3021 RMK AO2 SLP229 T00780067 10083 20078 50009
KMAE 
31nm W 
061816Z AUTO 15006KT 3SM BR OVC005 08/07 A3020 RMK AO2 T00830072
KMMH 
44nm NE 
061817Z AUTO 00000KT 10SM CLR 07/M07 A3024 RMK AO2
TAF
KFAT 
24nm SW 
061734Z 0618/0718 00000KT 1 1/2SM BR OVC005 FM062000 14004KT 4SM HZ SCT003 BKN015 FM070000 31004KT 6SM HZ SCT015 BKN100 FM070700 32003KT P6SM VCSH SCT025 BKN100 FM071500 34004KT 4SM BR OVC050
NOTAMs
Click for the latest NOTAMs
NOTAMs are issued by the DoD/FAA and will open in a separate window not controlled by AirNav.

 

 
 

Would you like to see your business listed on this page?

 If your business provides an interesting product or service to pilots, flight crews, aircraft, or users of the Table Mountain Field Airport, you should consider listing it here.  To start the listing process, click on the button below
 
Add a business
 

Other Pages about Table Mountain Field Airport

Update a link
 
Copyright © AirNav, LLC. All rights reserved. Privacy Policy  Contact